Asheboro, NC

12:43 AM EDT on March 29, 2017 (GMT -0400)
Asheboro Municipal

Weather History for KHBI - November, 2011

Change the Weather History Date:

Wednesday, November 23, 2011

  Actual Average Record
Temperature  
Mean Temperature 56 °F -  
Max Temperature 66 °F 59 °F 76 °F (1979)
Min Temperature 46 °F 37 °F 19 °F (1956)
Degree Days  
Heating Degree Days 9    
Growing Degree Days 6 (Base 50)    
Moisture  
Dew Point 49 °F    
Average Humidity 72    
Maximum Humidity 100    
Minimum Humidity 42    
Precipitation  
Precipitation 0.18 in - - ()
Sea Level Pressure  
Sea Level Pressure 29.92 in    
Wind  
Wind Speed 11 mph (West)    
Max Wind Speed 18 mph    
Max Gust Speed 32 mph    
Visibility 10 miles    
Events Rain    
Averages and records for this station are not official NWS values.
T = Trace of Precipitation, MM = Missing Value Source: NWS Daily Summary

Daily Weather History Graph

Daily Weather History Graph

Search for Another Location

Airport or City:

Trip Planner

Search our weather history database for the weather conditions in past years. The results will help you decide how hot, cold, wet, or windy it might be!

Date:

Astronomy

Nov. 23, 2011 Rise Set
Actual Time 7:02 AM EST 5:08 PM EST
Civil Twilight 6:35 AM EST 5:36 PM EST
Nautical Twilight 6:04 AM EST 6:07 PM EST
Astronomical Twilight 5:33 AM EST 6:37 PM EST
Moon 5:06 AM EST (11/23) 3:48 PM EST (11/23)
Length of Visible Light 11h 00m
Length of Day
10h 05m
Waning Crescent, 4% of the Moon is Illuminated
Nov 23
Waning Crescent
Nov 25
New
Dec 2
First Quarter
Dec 10
Full
Dec 17
Last Quarter

Hourly Weather History & Observations

Time (EST) Temp. Windchill Dew Point Humidity Pressure Visibility Wind Dir Wind Speed Gust Speed Precip Events Conditions
12:15 AM 64.4 °F - 60.8 °F 88% 29.92 in 10.0 mi South 12.7 mph 19.6 mph N/A Rain Rain
12:35 AM 64.4 °F - 60.8 °F 88% 29.91 in 10.0 mi South 10.4 mph 19.6 mph 0.04 in Rain Rain
12:55 AM 62.6 °F - 60.8 °F 94% 29.90 in 7.0 mi South 11.5 mph 19.6 mph 0.09 in Rain Rain
1:15 AM 64.4 °F - 60.8 °F 88% 29.87 in 10.0 mi South 17.3 mph 23.0 mph 0.02 in Rain Rain
1:35 AM 64.4 °F - 62.6 °F 94% 29.86 in 10.0 mi SSW 17.3 mph 32.2 mph 0.04 in Rain Light Rain
1:55 AM 64.4 °F - 62.6 °F 94% 29.86 in 10.0 mi SSW 13.8 mph 24.2 mph 0.04 in   Mostly Cloudy
2:15 AM 64.4 °F - 62.6 °F 94% 29.85 in 10.0 mi South 15.0 mph 23.0 mph N/A   Mostly Cloudy
2:35 AM 62.6 °F - 60.8 °F 94% 29.86 in 7.0 mi SW 10.4 mph 17.3 mph 0.02 in Rain Rain
2:55 AM 62.6 °F - 62.6 °F 100% 29.84 in 7.0 mi South 9.2 mph - 0.05 in Rain Light Rain
3:35 AM 62.6 °F - 62.6 °F 100% 29.82 in 10.0 mi SSW 9.2 mph 16.1 mph N/A   Mostly Cloudy
3:55 AM 62.6 °F - 62.6 °F 100% 29.81 in 10.0 mi SSW 9.2 mph - N/A   Overcast
4:15 AM 62.6 °F - 62.6 °F 100% 29.82 in 10.0 mi SW 9.2 mph 17.3 mph N/A   Overcast
4:35 AM 62.6 °F - 62.6 °F 100% 29.82 in 10.0 mi SW 9.2 mph - N/A   Overcast
4:55 AM 62.6 °F - 62.6 °F 100% 29.82 in 10.0 mi SW 8.1 mph - N/A   Overcast
5:15 AM 62.6 °F - 62.6 °F 100% 29.81 in 10.0 mi SW 9.2 mph - N/A   Mostly Cloudy
5:35 AM 62.6 °F - 62.6 °F 100% 29.81 in 10.0 mi SW 9.2 mph - N/A   Scattered Clouds
6:15 AM 62.6 °F - 60.8 °F 94% 29.82 in 10.0 mi SW 9.2 mph 16.1 mph N/A   Scattered Clouds
6:35 AM 62.6 °F - 60.8 °F 94% 29.82 in 10.0 mi SSW 10.4 mph - N/A   Clear
7:15 AM 62.6 °F - 60.8 °F 94% 29.82 in 10.0 mi SW 9.2 mph - N/A   Clear
7:35 AM 60.8 °F - 60.8 °F 100% 29.83 in 10.0 mi SW 8.1 mph - N/A   Clear
7:55 AM 60.8 °F - 60.8 °F 100% 29.84 in 10.0 mi SW 8.1 mph - N/A   Clear
8:35 AM 60.8 °F - 59.0 °F 94% 29.85 in 10.0 mi SW 8.1 mph - N/A   Mostly Cloudy
8:55 AM 62.6 °F - 59.0 °F 88% 29.85 in 10.0 mi SW 5.8 mph - N/A   Mostly Cloudy
9:15 AM 62.6 °F - 59.0 °F 88% 29.85 in 10.0 mi WSW 6.9 mph - N/A   Mostly Cloudy
9:35 AM 62.6 °F - 59.0 °F 88% 29.85 in 10.0 mi SW 5.8 mph - N/A   Overcast
9:55 AM 62.6 °F - 59.0 °F 88% 29.85 in 10.0 mi WSW 8.1 mph - N/A   Scattered Clouds
10:15 AM 62.6 °F - 59.0 °F 88% 29.84 in 10.0 mi WSW 6.9 mph - N/A   Clear
10:35 AM 64.4 °F - 55.4 °F 73% 29.84 in 10.0 mi WNW 11.5 mph 17.3 mph N/A   Scattered Clouds
10:55 AM 66.2 °F - 50.0 °F 56% 29.85 in 10.0 mi West 10.4 mph 27.6 mph N/A   Scattered Clouds
11:15 AM 66.2 °F - 50.0 °F 56% 29.84 in 10.0 mi WNW 9.2 mph 20.7 mph N/A   Clear
12:15 PM 64.4 °F - 44.6 °F 49% 29.84 in 10.0 mi WNW 10.4 mph 20.7 mph N/A   Clear
12:35 PM 66.2 °F - 44.6 °F 46% 29.86 in 10.0 mi NW 17.3 mph 24.2 mph N/A   Scattered Clouds
12:55 PM 64.4 °F - 42.8 °F 45% 29.87 in 10.0 mi NW 8.1 mph 19.6 mph N/A   Mostly Cloudy
1:15 PM 62.6 °F - 41.0 °F 45% 29.89 in 10.0 mi NW 16.1 mph 27.6 mph N/A   Scattered Clouds
1:35 PM 62.6 °F - 39.2 °F 42% 29.89 in 10.0 mi WNW 11.5 mph 23.0 mph N/A   Clear
2:15 PM 60.8 °F - 37.4 °F 42% 29.93 in 10.0 mi NW 17.3 mph 29.9 mph N/A   Scattered Clouds
2:35 PM 60.8 °F - 37.4 °F 42% 29.92 in 10.0 mi NNW 9.2 mph 24.2 mph N/A   Clear
3:15 PM 59.0 °F - 35.6 °F 42% 29.94 in 10.0 mi NNW 15.0 mph 24.2 mph N/A   Clear
3:35 PM 59.0 °F - 35.6 °F 42% 29.95 in 10.0 mi NNW 8.1 mph 25.3 mph N/A   Clear
4:15 PM 55.4 °F - 35.6 °F 47% 29.98 in 10.0 mi NNW 13.8 mph 21.9 mph N/A   Clear
4:35 PM 55.4 °F - 35.6 °F 47% 29.99 in 10.0 mi NNW 18.4 mph 26.5 mph N/A   Clear
4:55 PM 55.4 °F - 35.6 °F 47% 30.00 in 10.0 mi NW 17.3 mph 27.6 mph N/A   Clear
5:15 PM 53.6 °F - 35.6 °F 51% 30.02 in 10.0 mi NNW 8.1 mph 20.7 mph N/A   Clear
5:35 PM 53.6 °F - 35.6 °F 51% 30.03 in 10.0 mi NNW 5.8 mph - N/A   Clear
5:55 PM 53.6 °F - 33.8 °F 47% 30.04 in 10.0 mi North 15.0 mph 18.4 mph N/A   Clear
6:35 PM 51.8 °F - 33.8 °F 50% 30.07 in 10.0 mi North 8.1 mph 17.3 mph N/A   Clear
6:55 PM 51.8 °F - 33.8 °F 50% 30.08 in 10.0 mi NNW 8.1 mph - N/A   Clear
7:15 PM 51.8 °F - 33.8 °F 50% 30.09 in 10.0 mi NNW 10.4 mph - N/A   Clear
7:35 PM 50.0 °F - 32.0 °F 50% 30.11 in 10.0 mi North 6.9 mph - N/A   Clear
7:55 PM 50.0 °F - 32.0 °F 50% 30.11 in 10.0 mi NNW 8.1 mph - N/A   Clear
8:15 PM 50.0 °F - 32.0 °F 50% 30.12 in 10.0 mi North 5.8 mph - N/A   Clear
8:35 PM 50.0 °F - 33.8 °F 54% 30.14 in 10.0 mi North 5.8 mph - N/A   Clear
8:55 PM 48.2 °F - 33.8 °F 58% 30.14 in 10.0 mi North 3.5 mph - N/A   Clear
9:15 PM 46.4 °F 45.2 °F 33.8 °F 62% 30.14 in 10.0 mi NNW 3.5 mph - N/A   Clear
9:35 PM 46.4 °F 44.3 °F 33.8 °F 62% 30.15 in 10.0 mi NNW 4.6 mph - N/A   Clear
9:55 PM 46.4 °F - 33.8 °F 62% 30.16 in 10.0 mi Calm Calm - N/A   Clear
10:15 PM 46.4 °F - 33.8 °F 62% 30.17 in 10.0 mi Calm Calm - N/A   Clear
10:35 PM 44.6 °F 42.2 °F 33.8 °F 66% 30.17 in 10.0 mi North 4.6 mph - N/A   Clear
10:55 PM 46.4 °F 41.9 °F 33.8 °F 62% 30.17 in 10.0 mi NNW 9.2 mph - N/A   Clear
11:15 PM 46.4 °F 45.2 °F 33.8 °F 62% 30.18 in 10.0 mi North 3.5 mph - N/A   Clear
11:35 PM 46.4 °F 43.5 °F 32.0 °F 57% 30.18 in 10.0 mi NNW 5.8 mph - N/A   Clear
11:55 PM 46.4 °F 43.5 °F 33.8 °F 62% 30.19 in 10.0 mi North 5.8 mph - N/A   Clear